Regional Weather Roundup
Issued by NWS

Home | Current Version | Previous Version | Text Only | Print | Product List | Glossary On
Versions: 1 2 3 4 5 6 7 8 9 10 11 12 13 14 15 16 17 18 19 20 21 22 23 24 25 26 27 28 29 30 31 32 33 34 35 36 37 38 39 40 41 42 43 44 45 46 47 48 49 50
000
ASUS43 KDTX 181610
RWRMI
MICHIGAN HOURLY REGIONAL WEATHER ROUNDUP
NATIONAL WEATHER SERVICE DETROIT/PONTIAC MI
1100 AM EST MON DEC 18 2017

NOTE: "FAIR" INDICATES FEW OR NO CLOUDS BELOW 12,000 FEET WITH NO
SIGNIFICANT WEATHER AND/OR OBSTRUCTION TO VISIBILITY.

MIZ047>049-052>055-059>063-066>070-074>076-081>083-181700-
SOUTHEAST LOWER MICHIGAN

CITY           SKY/WX    TMP DP  RH WIND       PRES   REMARKS
ADRIAN         CLOUDY    37  37 100 W7        29.95S FOG     WCI  32
ALMA           FOG       36  36 100 SW6       29.88R VSB 1   WCI  31
ANN ARBOR      CLOUDY    38  37  97 S10       29.92S FOG     WCI  31
BAD AXE        MIX PCPN  34  33  98 SW5       29.87F VSB 3/4 WCI  30
CARO           LGT RAIN  35  35 100 CALM      29.87F VSB 1/2
DETROIT CITY   CLOUDY    38  36  92 SW9       29.93F FOG     WCI  31
DETROIT        CLOUDY    39  36  89 SW14      29.94S FOG     WCI  31
FLINT          CLOUDY    38  36  92 SW9       29.89F FOG     WCI  31
GROSSE ILE     CLOUDY    38  36  94 SW9       29.93F FOG     WCI  31
HILLSDALE      FOG       37  36  93 SW7       29.92S VSB 1/4 WCI  32
HOWELL         LGT RAIN  38  38 100 SW9       29.89F WCI  32

CITY           SKY/WX    TMP DP  RH WIND       PRES   REMARKS
JACKSON        CLOUDY    40  37  89 S14       29.91F FOG     WCI  32
LAMBERTVILLE   CLOUDY    39  38  94 SW9       29.96S FOG     WCI  33
LANSING        LGT RAIN  38  38 100 SW10      29.90S FOG     WCI  31
LAPEER         LGT RAIN  37  37  99 SW8       29.88F WCI  31
MASON          CLOUDY    39  36  88 SW8       29.90S FOG     WCI  34
MONROE         CLOUDY    38  36  92 SW8G16    29.94S FOG     WCI  32
MT. CLEMENS    LGT RAIN  38  38 100 SW9       29.90F FOG     WCI  31
PONTIAC        FOG       37  37 100 SW7       29.89S VSB 1   WCI  32
PORT HOPE        N/A     33  32  96 CALM      29.86F
PORT HURON     DRIZZLE   36  34  93 S7        29.91F WCI  30
TRI CITIES     LGT RAIN  35  35 100 S5        29.87S VSB 1/4 WCI  31
MIDLAND        RAIN      33  32  99 CALM      29.87S VSB 1/2
TROY           CLOUDY    38  37  94 SW9       29.93S FOG     WCI  31
SAGINAW HB     FOG       34  34 100 SW5       29.87S VSB 1/2 WCI  30
$$
MIZ043>046-050>051-056>058-064>065-071>073-077>080-181700-
SOUTHWEST LOWER MICHIGAN

CITY           SKY/WX    TMP DP  RH WIND       PRES   REMARKS
BATTLE CREEK   FOG       38  38 100 SW15      29.90F VSB 3/4 WCI  29
BENTON HARBOR  CLOUDY    42  39  89 SW13      29.93R FOG
BIG RAPIDS     FOG       32  32  99 CALM      29.85S VSB 1
COLDWATER      FOG       39  39 100 SW10      29.93S VSB 3/4 WCI  33
HOLLAND        CLOUDY    40  38  93 W17       29.90R WCI  31
GRAND RAPIDS   DRZL/FOG  38  37  97 S8        29.89R VSB 1/2 WCI  32
IONIA          CLOUDY    37  37  99 SW9       29.88S FOG     WCI  31
KALAMAZOO      FOG       39  38  96 SW12      29.92S VSB 3/4 WCI  32
LUDINGTON      CLOUDY    35  32  89 W9        29.86R FOG     WCI  28
MARSHALL       FOG       38  38  98 SW12      29.91S VSB 3/4 WCI  31
MOUNT PLEASANT LGT RAIN  34  33  96 CALM      29.86S VSB 1/4
MUSKEGON       CLOUDY    39  36  89 W12       29.88S WCI  32
SOUTH HAVEN    CLOUDY    43  41  93 SW14G20   29.92R FOG
$$
MIZ016>042-181700-
NORTHERN LOWER MICHIGAN

CITY           SKY/WX    TMP DP  RH WIND       PRES   REMARKS
ALPENA         CLOUDY    30  28  93 SW7       29.86S FOG     WCI  23
BEAVER ISLAND  CLOUDY    35  32  88 SW7       29.80F WCI  29
BELLAIRE       CLOUDY    32  32 100 CALM      29.84R FOG
CADILLAC       CLOUDY    30  30  99 SW5       29.81F FOG     WCI  26
CHARLEVOIX     FOG       32  32 100 S5        29.86R VSB 1   WCI  28
FRANKFORT      CLOUDY    35  32  91 SW5       29.85R FOG     WCI  31
GAYLORD        FOG       28  27  96 S6        29.80S VSB 1/4 WCI  22
GRAYLING       FOG       29  28  96 CALM      29.83F VSB 1/2
HARBOR SPRINGS CLOUDY    31  31  99 S6        29.82R FOG     WCI  25
HOUGHTON LAKE  CLOUDY    30  28  92 CALM      29.83F FOG
MANISTEE       CLOUDY    33  32  96 W10       29.85S FOG     WCI  25
OSCODA         CLOUDY    29  28  94 SW6       29.86F FOG     WCI  23
PELLSTON       CLOUDY    30  30 100 S5        29.83R FOG     WCI  25
ROGERS CITY    CLOUDY    30  28  91 S5        29.85S FOG     WCI  25
TRAVERSE CITY  CLOUDY    34  31  88 SW6       29.84R FOG     WCI  29
$$
MIZ007>008-015-181700-
EASTERN UPPER MICHIGAN

CITY           SKY/WX    TMP DP  RH WIND       PRES   REMARKS
MACKINAC ISLAN FOG       32  32 100 S8        29.81R VSB 3/4 WCI  25
NEWBERRY       FOG       28  28  97 S5        29.77F VSB 1/4 WCI  23
S. S. MARIE    CLOUDY    25  23  92 E5        29.80F FOG     WCI  19
MUNISING         N/A     27  27 100 S9        29.77S WCI  18
$$
MIZ004>006-011>014-085-181700-
CENTRAL UPPER MICHIGAN

CITY           SKY/WX    TMP DP  RH WIND       PRES   REMARKS
MANISTIQUE     CLOUDY    30  25  81 SW7       29.79S HAZE    WCI  23
ESCANABA       CLOUDY    29  26  89 SW7       29.81F FOG     WCI  22
MENOMINEE      CLOUDY    29  27  92 W7        29.84S FOG     WCI  22
SAWYER-GWINN   CLOUDY    25  25 100 SW6       29.75F FOG     WCI  18
$$
MIZ001>003-009>011-084-181700-
WESTERN UPPER MICHIGAN

CITY           SKY/WX    TMP DP  RH WIND       PRES   REMARKS
IRON MOUNTAIN  PTSUNNY   28  25  88 S3        29.75F
HOUGHTON       CLOUDY    27  23  85 S7        29.68F WCI  19
COPPER HARBOR    N/A     29  25  85 SW9       29.69F WCI  20
IRONWOOD       CLOUDY    29  26  89 S9        29.72R WCI  20
$$

ABBREVIATIONS USED IN REMARKS
   TC - TEMPERATURE IN CELSIUS
  WCI - WIND CHILL INDEX
   HX - HEAT INDEX
  VSB - VISIBILITY





USA.gov is the U.S. government's official web portal to all federal, state and local government web resources and services.